ARG1252 SASA-SBGR

Flight info

Callsign ARG1252
Flight time 2h 27m
Altitude FL370
Route IXU KIBOS JUJ UM789 VAS UM548 USVEL UZ121 BUXUK MOLE1D
Aircraft B38M/M-SDE2E3FGHIRWXY/LB1

Departure

Time 2026-04-23 14:28
Airport Martín Miguel de Güemes International Airport (SASA)

Arrival

Time 2026-04-23 16:56
Airport São Paulo/Guarulhos–Governor André Franco Montoro International Airport (SBGR)
Time Latitude Longitude Altitude Speed Heading
2026-04-23 13:54 -24.84499 -65.47826 4019 ft 0 kts 22°
2026-04-23 14:08 -24.84512 -65.47832 4020 ft 4 kts 33°
2026-04-23 14:08 -24.84527 -65.47852 4019 ft 4 kts 84°
2026-04-23 14:08 -24.84525 -65.47867 4020 ft 1 kts 111°
2026-04-23 14:18 -24.84527 -65.47862 4020 ft 3 kts 111°
2026-04-23 14:18 -24.84541 -65.47820 4019 ft 9 kts 112°
2026-04-23 14:19 -24.84604 -65.47770 4020 ft 14 kts 157°
2026-04-23 14:19 -24.84712 -65.47718 4020 ft 20 kts 156°
2026-04-23 14:19 -24.84819 -65.47665 4020 ft 14 kts 156°
2026-04-23 14:19 -24.84901 -65.47678 4020 ft 13 kts 229°
2026-04-23 14:20 -24.84968 -65.47767 4021 ft 17 kts 232°
2026-04-23 14:20 -24.85032 -65.47859 4021 ft 13 kts 237°
2026-04-23 14:20 -24.85082 -65.47931 4021 ft 11 kts 232°
2026-04-23 14:20 -24.85123 -65.47988 4021 ft 8 kts 232°
2026-04-23 14:21 -24.85154 -65.48031 4022 ft 7 kts 232°
2026-04-23 14:21 -24.85186 -65.48077 4022 ft 9 kts 232°
2026-04-23 14:21 -24.85233 -65.48143 4021 ft 13 kts 232°
2026-04-23 14:21 -24.85298 -65.48236 4020 ft 17 kts 232°
2026-04-23 14:22 -24.85377 -65.48347 4020 ft 19 kts 231°
2026-04-23 14:22 -24.85462 -65.48463 4019 ft 19 kts 227°
2026-04-23 14:22 -24.85545 -65.48570 4020 ft 18 kts 220°
2026-04-23 14:22 -24.85651 -65.48636 4021 ft 18 kts 196°
2026-04-23 14:23 -24.85776 -65.48657 4020 ft 18 kts 193°
2026-04-23 14:23 -24.85896 -65.48689 4021 ft 17 kts 193°
2026-04-23 14:23 -24.86013 -65.48715 4021 ft 17 kts 190°
2026-04-23 14:23 -24.86133 -65.48739 4020 ft 18 kts 190°
2026-04-23 14:24 -24.86257 -65.48765 4019 ft 18 kts 191°
2026-04-23 14:24 -24.86383 -65.48791 4019 ft 19 kts 192°
2026-04-23 14:24 -24.86513 -65.48822 4018 ft 19 kts 192°
2026-04-23 14:24 -24.86644 -65.48847 4018 ft 19 kts 191°
2026-04-23 14:25 -24.86772 -65.48877 4018 ft 19 kts 191°
2026-04-23 14:25 -24.86900 -65.48893 4018 ft 18 kts 167°
2026-04-23 14:25 -24.87017 -65.48855 4020 ft 17 kts 162°
2026-04-23 14:25 -24.87111 -65.48821 4020 ft 13 kts 161°
2026-04-23 14:26 -24.87200 -65.48792 4020 ft 13 kts 170°
2026-04-23 14:26 -24.87285 -65.48817 4020 ft 13 kts 225°
2026-04-23 14:26 -24.87299 -65.48907 4021 ft 12 kts 284°
2026-04-23 14:26 -24.87253 -65.48960 4021 ft 9 kts 339°
2026-04-23 14:27 -24.87204 -65.48967 4021 ft 6 kts
2026-04-23 14:27 -24.87166 -65.48959 4021 ft 13 kts 10°
2026-04-23 14:27 -24.86861 -65.48895 4017 ft 76 kts 11°
2026-04-23 14:27 -24.86166 -65.48747 4020 ft 127 kts 11°
2026-04-23 14:28 -24.85160 -65.48535 4023 ft 166 kts 10°
2026-04-23 14:28 -24.84083 -65.48397 4611 ft 160 kts
2026-04-23 14:28 -24.82876 -65.48158 4702 ft 188 kts 13°
2026-04-23 14:28 -24.81619 -65.47833 5342 ft 185 kts 13°
2026-04-23 14:29 -24.80348 -65.47522 5821 ft 194 kts 12°
2026-04-23 14:29 -24.78955 -65.47193 6100 ft 216 kts 12°
2026-04-23 14:29 -24.77416 -65.46836 6419 ft 237 kts 11°
2026-04-23 14:29 -24.75741 -65.46404 6769 ft 258 kts 20°
2026-04-23 14:30 -24.74302 -65.45275 7527 ft 257 kts 50°
2026-04-23 14:30 -24.73275 -65.43658 8264 ft 263 kts 56°
2026-04-23 14:30 -24.72236 -65.41932 8747 ft 280 kts 56°
2026-04-23 14:30 -24.71149 -65.40109 9394 ft 287 kts 56°
2026-04-23 14:31 -24.70057 -65.38268 10242 ft 290 kts 56°
2026-04-23 14:31 -24.68926 -65.36359 10617 ft 308 kts 55°
2026-04-23 14:31 -24.67724 -65.34326 10915 ft 327 kts 55°
2026-04-23 14:31 -24.66503 -65.32157 11279 ft 342 kts 64°
2026-04-23 14:32 -24.65826 -65.29654 12030 ft 343 kts 75°
2026-04-23 14:32 -24.65280 -65.27086 12621 ft 350 kts 75°
2026-04-23 14:32 -24.64728 -65.24468 13300 ft 353 kts 75°
2026-04-23 14:32 -24.64174 -65.21824 13943 ft 358 kts 75°
2026-04-23 14:33 -24.63612 -65.19147 14527 ft 362 kts 75°
2026-04-23 14:33 -24.63044 -65.16435 15120 ft 367 kts 74°
2026-04-23 14:33 -24.62469 -65.13690 15673 ft 372 kts 74°
2026-04-23 14:33 -24.61887 -65.10918 16218 ft 376 kts 74°
2026-04-23 14:34 -24.61296 -65.08105 16773 ft 380 kts 74°
2026-04-23 14:34 -24.60699 -65.05267 17306 ft 384 kts 74°
2026-04-23 14:34 -24.60095 -65.02396 17832 ft 388 kts 74°
2026-04-23 14:34 -24.59485 -64.99500 18347 ft 392 kts 73°
2026-04-23 14:35 -24.58867 -64.96572 18805 ft 396 kts 73°
2026-04-23 14:35 -24.58243 -64.93617 19252 ft 399 kts 73°
2026-04-23 14:35 -24.57615 -64.90643 19693 ft 402 kts 73°
2026-04-23 14:35 -24.56981 -64.87645 20130 ft 405 kts 73°
2026-04-23 14:36 -24.56342 -64.84627 20565 ft 408 kts 73°
2026-04-23 14:36 -24.55697 -64.81591 21016 ft 411 kts 73°
2026-04-23 14:36 -24.55047 -64.78526 21433 ft 414 kts 73°
2026-04-23 14:36 -24.54391 -64.75440 21858 ft 417 kts 73°
2026-04-23 14:37 -24.53730 -64.72330 22277 ft 420 kts 73°
2026-04-23 14:37 -24.53063 -64.69202 22701 ft 423 kts 73°
2026-04-23 14:37 -24.52391 -64.66049 23117 ft 426 kts 73°
2026-04-23 14:37 -24.51714 -64.62877 23531 ft 429 kts 73°
2026-04-23 14:38 -24.51031 -64.59678 23908 ft 432 kts 73°
2026-04-23 14:38 -24.50343 -64.56461 24239 ft 435 kts 73°
2026-04-23 14:38 -24.49649 -64.53225 24571 ft 438 kts 73°
2026-04-23 14:38 -24.48952 -64.49963 24894 ft 441 kts 73°
2026-04-23 14:39 -24.48274 -64.46672 25265 ft 445 kts 77°
2026-04-23 14:39 -24.48149 -64.43268 25535 ft 452 kts 94°
2026-04-23 14:39 -24.48564 -64.39854 25889 ft 453 kts 96°
2026-04-23 14:39 -24.48983 -64.36414 26140 ft 458 kts 96°
2026-04-23 14:40 -24.49407 -64.32953 26469 ft 460 kts 96°
2026-04-23 14:40 -24.49834 -64.29467 26788 ft 463 kts 96°
2026-04-23 14:40 -24.50262 -64.25964 27075 ft 466 kts 96°
2026-04-23 14:40 -24.50692 -64.22439 27391 ft 468 kts 96°
2026-04-23 14:41 -24.51124 -64.18895 27681 ft 470 kts 96°
2026-04-23 14:41 -24.51557 -64.15331 27964 ft 473 kts 96°
2026-04-23 14:41 -24.51991 -64.11752 28254 ft 475 kts 96°
2026-04-23 14:41 -24.52428 -64.08151 28531 ft 478 kts 96°
2026-04-23 14:42 -24.52871 -64.04533 28808 ft 480 kts 96°
2026-04-23 14:42 -24.53318 -64.00897 29080 ft 483 kts 96°
2026-04-23 14:42 -24.53765 -63.97243 29357 ft 485 kts 96°
2026-04-23 14:42 -24.54213 -63.93574 29621 ft 487 kts 96°
2026-04-23 14:43 -24.54663 -63.89881 29882 ft 490 kts 96°
2026-04-23 14:43 -24.55114 -63.86171 30138 ft 492 kts 96°
2026-04-23 14:43 -24.55566 -63.82447 30366 ft 494 kts 96°
2026-04-23 14:43 -24.56020 -63.78702 30579 ft 497 kts 96°
2026-04-23 14:44 -24.56474 -63.74945 30788 ft 499 kts 96°
2026-04-23 14:44 -24.56930 -63.71163 30993 ft 501 kts 96°
2026-04-23 14:44 -24.57386 -63.67372 31196 ft 503 kts 96°
2026-04-23 14:44 -24.57843 -63.63565 31401 ft 505 kts 96°
2026-04-23 14:45 -24.58301 -63.59738 31601 ft 507 kts 96°
2026-04-23 14:45 -24.58761 -63.55894 31794 ft 510 kts 96°
2026-04-23 14:45 -24.59221 -63.52035 31995 ft 511 kts 96°
2026-04-23 14:45 -24.59682 -63.48158 32200 ft 513 kts 96°
2026-04-23 14:46 -24.60144 -63.44273 32393 ft 515 kts 96°
2026-04-23 14:46 -24.60606 -63.40369 32588 ft 517 kts 96°
2026-04-23 14:46 -24.61070 -63.36448 32780 ft 519 kts 96°
2026-04-23 14:46 -24.61534 -63.32514 32973 ft 521 kts 96°
2026-04-23 14:47 -24.61999 -63.28570 33158 ft 523 kts 95°
2026-04-23 14:47 -24.62467 -63.24609 33394 ft 523 kts 95°
2026-04-23 14:47 -24.62935 -63.20653 33648 ft 524 kts 96°
2026-04-23 14:47 -24.63403 -63.16692 33896 ft 524 kts 95°
2026-04-23 14:48 -24.63869 -63.12729 34138 ft 524 kts 95°
2026-04-23 14:48 -24.64334 -63.08765 34357 ft 524 kts 95°
2026-04-23 14:48 -24.64800 -63.04799 34582 ft 524 kts 95°
2026-04-23 14:48 -24.65263 -63.00837 34810 ft 524 kts 95°
2026-04-23 14:49 -24.65725 -62.96878 35044 ft 523 kts 95°
2026-04-23 14:49 -24.66186 -62.92925 35291 ft 522 kts 95°
2026-04-23 14:49 -24.66644 -62.88981 35521 ft 521 kts 95°
2026-04-23 14:49 -24.67100 -62.85039 35748 ft 521 kts 95°
2026-04-23 14:50 -24.67556 -62.81098 35970 ft 520 kts 95°
2026-04-23 14:50 -24.68010 -62.77159 36185 ft 520 kts 95°
2026-04-23 14:50 -24.68462 -62.73230 36395 ft 519 kts 95°
2026-04-23 14:50 -24.68913 -62.69301 36596 ft 519 kts 95°
2026-04-23 14:51 -24.69362 -62.65380 36795 ft 518 kts 95°
2026-04-23 14:51 -24.69810 -62.61464 36988 ft 517 kts 95°
2026-04-23 14:51 -24.70256 -62.57548 37136 ft 517 kts 95°
2026-04-23 14:51 -24.70702 -62.53628 37141 ft 517 kts 95°
2026-04-23 14:52 -24.71591 -62.45827 37130 ft 515 kts 95°
2026-04-23 14:52 -24.72475 -62.38025 37129 ft 515 kts 95°
2026-04-23 14:53 -24.73356 -62.30230 37124 ft 515 kts 95°
2026-04-23 14:53 -24.74231 -62.22430 37126 ft 515 kts 95°
2026-04-23 14:54 -24.75103 -62.14635 37121 ft 514 kts 95°
2026-04-23 14:54 -24.75970 -62.06844 37115 ft 514 kts 95°
2026-04-23 14:55 -24.76833 -61.99051 37116 ft 514 kts 95°
2026-04-23 14:55 -24.77803 -61.91281 37090 ft 515 kts 103°
2026-04-23 14:56 -24.79695 -61.83701 37121 ft 516 kts 104°
2026-04-23 14:56 -24.81544 -61.76109 37111 ft 514 kts 99°
2026-04-23 14:57 -24.82466 -61.68350 37115 ft 513 kts 96°
2026-04-23 14:57 -24.83376 -61.60567 37091 ft 513 kts 95°
2026-04-23 14:58 -24.84234 -61.52783 37095 ft 513 kts 95°
2026-04-23 14:58 -24.85083 -61.45002 37093 ft 513 kts 95°
2026-04-23 14:59 -24.85928 -61.37226 37087 ft 513 kts 95°
2026-04-23 14:59 -24.86768 -61.29451 37086 ft 512 kts 95°
2026-04-23 15:00 -24.87604 -61.21676 37078 ft 512 kts 95°
2026-04-23 15:00 -24.88437 -61.13898 37083 ft 512 kts 95°
2026-04-23 15:01 -24.89264 -61.06125 37084 ft 512 kts 95°
2026-04-23 15:01 -24.90087 -60.98364 37075 ft 511 kts 95°
2026-04-23 15:02 -24.90905 -60.90600 37078 ft 511 kts 94°
2026-04-23 15:02 -24.91719 -60.82845 37074 ft 511 kts 95°
2026-04-23 15:03 -24.92527 -60.75089 37078 ft 510 kts 94°
2026-04-23 15:03 -24.93331 -60.67340 37076 ft 510 kts 94°
2026-04-23 15:04 -24.94129 -60.59595 37092 ft 510 kts 94°
2026-04-23 15:04 -24.94924 -60.51844 37080 ft 510 kts 94°
2026-04-23 15:05 -24.95714 -60.44105 37080 ft 510 kts 94°
2026-04-23 15:05 -24.96502 -60.36355 37080 ft 510 kts 94°
2026-04-23 15:06 -24.97284 -60.28612 37082 ft 509 kts 94°
2026-04-23 15:06 -24.98062 -60.20868 37078 ft 509 kts 94°
2026-04-23 15:07 -24.98835 -60.13131 37086 ft 509 kts 94°
2026-04-23 15:07 -24.99605 -60.05392 37083 ft 509 kts 94°
2026-04-23 15:08 -25.00370 -59.97652 37083 ft 509 kts 94°
2026-04-23 15:09 -25.01510 -59.86043 37082 ft 509 kts 94°
2026-04-23 15:09 -25.02265 -59.78307 37081 ft 509 kts 94°
2026-04-23 15:10 -25.03025 -59.70561 37087 ft 509 kts 95°
2026-04-23 15:10 -25.03859 -59.62817 37089 ft 510 kts 95°
2026-04-23 15:11 -25.04681 -59.55073 37086 ft 509 kts 95°
2026-04-23 15:11 -25.05500 -59.47325 37090 ft 509 kts 95°
2026-04-23 15:12 -25.06314 -59.39581 37086 ft 509 kts 95°
2026-04-23 15:12 -25.07123 -59.31838 37087 ft 509 kts 95°
2026-04-23 15:13 -25.07930 -59.24095 37087 ft 510 kts 95°
2026-04-23 15:13 -25.08733 -59.16337 37087 ft 510 kts 95°
2026-04-23 15:14 -25.09531 -59.08575 37089 ft 511 kts 95°
2026-04-23 15:14 -25.10328 -59.00797 37084 ft 511 kts 95°
2026-04-23 15:15 -25.11122 -58.93016 37083 ft 512 kts 95°
2026-04-23 15:15 -25.11911 -58.85221 37082 ft 512 kts 95°
2026-04-23 15:16 -25.12698 -58.77423 37083 ft 513 kts 94°
2026-04-23 15:16 -25.13482 -58.69606 37081 ft 514 kts 94°
2026-04-23 15:17 -25.14262 -58.61789 37078 ft 513 kts 94°
2026-04-23 15:17 -25.15036 -58.53979 37081 ft 513 kts 94°
2026-04-23 15:18 -25.15808 -58.46175 37073 ft 513 kts 94°
2026-04-23 15:18 -25.16574 -58.38365 37077 ft 512 kts 94°
2026-04-23 15:19 -25.17336 -58.30563 37077 ft 512 kts 94°
2026-04-23 15:19 -25.18094 -58.22763 37074 ft 512 kts 94°
2026-04-23 15:20 -25.18833 -58.14951 37071 ft 512 kts 94°
2026-04-23 15:20 -25.19538 -58.07141 37072 ft 512 kts 94°
2026-04-23 15:21 -25.20243 -57.99336 37070 ft 512 kts 94°
2026-04-23 15:21 -25.20943 -57.91534 37070 ft 512 kts 94°
2026-04-23 15:22 -25.21640 -57.83725 37063 ft 512 kts 94°
2026-04-23 15:22 -25.22332 -57.75917 37063 ft 512 kts 94°
2026-04-23 15:23 -25.23021 -57.68113 37051 ft 512 kts 94°
2026-04-23 15:23 -25.23703 -57.60310 37048 ft 511 kts 94°
2026-04-23 15:24 -25.24404 -57.52510 37038 ft 512 kts 96°
2026-04-23 15:24 -25.25425 -57.44752 37050 ft 512 kts 96°
2026-04-23 15:25 -25.26403 -57.36989 37052 ft 511 kts 96°
2026-04-23 15:25 -25.27368 -57.29226 37060 ft 511 kts 96°
2026-04-23 15:26 -25.28330 -57.21460 37059 ft 511 kts 96°
2026-04-23 15:26 -25.29287 -57.13699 37072 ft 511 kts 96°
2026-04-23 15:27 -25.30242 -57.05938 37068 ft 510 kts 96°
2026-04-23 15:27 -25.31190 -56.98176 37068 ft 511 kts 96°
2026-04-23 15:28 -25.32135 -56.90422 37065 ft 510 kts 96°
2026-04-23 15:28 -25.33074 -56.82663 37070 ft 510 kts 96°
2026-04-23 15:29 -25.34009 -56.74914 37066 ft 510 kts 96°
2026-04-23 15:29 -25.34942 -56.67153 37061 ft 510 kts 96°
2026-04-23 15:30 -25.35853 -56.59399 37061 ft 510 kts 96°
2026-04-23 15:30 -25.36740 -56.51642 37064 ft 510 kts 96°
2026-04-23 15:31 -25.37626 -56.43877 37063 ft 510 kts 96°
2026-04-23 15:31 -25.38507 -56.36114 37063 ft 510 kts 95°
2026-04-23 15:32 -25.39530 -56.27056 37064 ft 510 kts 95°
2026-04-23 15:32 -25.40258 -56.20583 37067 ft 510 kts 95°
2026-04-23 15:33 -25.41127 -56.12815 37067 ft 510 kts 95°
2026-04-23 15:33 -25.41992 -56.05048 37068 ft 510 kts 95°
2026-04-23 15:34 -25.42852 -55.97280 37066 ft 510 kts 95°
2026-04-23 15:34 -25.43710 -55.89510 37072 ft 510 kts 95°
2026-04-23 15:35 -25.44563 -55.81740 37074 ft 510 kts 95°
2026-04-23 15:35 -25.45411 -55.73972 37075 ft 510 kts 95°
2026-04-23 15:36 -25.46252 -55.66205 37075 ft 509 kts 95°
2026-04-23 15:36 -25.47090 -55.58437 37066 ft 509 kts 95°
2026-04-23 15:37 -25.47923 -55.50671 37063 ft 509 kts 95°
2026-04-23 15:37 -25.48751 -55.42908 37075 ft 509 kts 95°
2026-04-23 15:38 -25.49575 -55.35149 37071 ft 509 kts 95°
2026-04-23 15:38 -25.50394 -55.27384 37064 ft 509 kts 95°
2026-04-23 15:39 -25.51210 -55.19624 37065 ft 509 kts 95°
2026-04-23 15:39 -25.52021 -55.11868 37079 ft 508 kts 95°
2026-04-23 15:40 -25.52827 -55.04109 37072 ft 508 kts 95°
2026-04-23 15:40 -25.53629 -54.96360 37071 ft 508 kts 95°
2026-04-23 15:41 -25.54427 -54.88605 37073 ft 508 kts 95°
2026-04-23 15:41 -25.55221 -54.80847 37072 ft 508 kts 95°
2026-04-23 15:42 -25.56011 -54.73090 37072 ft 508 kts 95°
2026-04-23 15:42 -25.56797 -54.65336 37075 ft 508 kts 95°
2026-04-23 15:43 -25.57582 -54.57575 37075 ft 508 kts 95°
2026-04-23 15:43 -25.58261 -54.49820 37077 ft 507 kts 88°
2026-04-23 15:44 -25.58355 -54.42023 37086 ft 508 kts 89°
2026-04-23 15:44 -25.58435 -54.34220 37072 ft 507 kts 89°
2026-04-23 15:45 -25.58488 -54.26421 37074 ft 508 kts 89°
2026-04-23 15:45 -25.58536 -54.18619 37073 ft 507 kts 88°
2026-04-23 15:46 -25.58581 -54.10828 37072 ft 507 kts 88°
2026-04-23 15:46 -25.58620 -54.03035 37077 ft 507 kts 88°
2026-04-23 15:47 -25.58657 -53.95249 37077 ft 506 kts 88°
2026-04-23 15:47 -25.58689 -53.87468 37076 ft 506 kts 88°
2026-04-23 15:48 -25.58717 -53.79689 37075 ft 506 kts 88°
2026-04-23 15:48 -25.58486 -53.75829 37067 ft 502 kts 75°
2026-04-23 15:48 -25.57663 -53.72108 37072 ft 500 kts 73°
2026-04-23 15:49 -25.56256 -53.64534 37090 ft 504 kts 75°
2026-04-23 15:49 -25.54780 -53.56976 37097 ft 503 kts 75°
2026-04-23 15:50 -25.53260 -53.49427 37085 ft 503 kts 74°
2026-04-23 15:50 -25.51732 -53.41882 37090 ft 503 kts 74°
2026-04-23 15:51 -25.50202 -53.34333 37084 ft 503 kts 74°
2026-04-23 15:51 -25.48665 -53.26785 37100 ft 504 kts 75°
2026-04-23 15:52 -25.47126 -53.19240 37086 ft 503 kts 74°
2026-04-23 15:52 -25.45584 -53.11705 37092 ft 504 kts 74°
2026-04-23 15:53 -25.44037 -53.04165 37098 ft 503 kts 74°
2026-04-23 15:53 -25.42485 -52.96627 37103 ft 503 kts 74°
2026-04-23 15:54 -25.40932 -52.89093 37096 ft 503 kts 74°
2026-04-23 15:54 -25.39373 -52.81562 37100 ft 503 kts 74°
2026-04-23 15:55 -25.37812 -52.74036 37097 ft 503 kts 74°
2026-04-23 15:55 -25.36247 -52.66511 37111 ft 503 kts 74°
2026-04-23 15:56 -25.34680 -52.58996 37104 ft 503 kts 74°
2026-04-23 15:56 -25.33108 -52.51479 37103 ft 503 kts 74°
2026-04-23 15:57 -25.31531 -52.43962 37102 ft 503 kts 74°
2026-04-23 15:57 -25.29954 -52.36456 37093 ft 502 kts 74°
2026-04-23 15:58 -25.28372 -52.28950 37113 ft 503 kts 74°
2026-04-23 15:58 -25.26785 -52.21446 37114 ft 503 kts 74°
2026-04-23 15:59 -25.25194 -52.13939 37119 ft 503 kts 74°
2026-04-23 15:59 -25.23601 -52.06439 37113 ft 503 kts 74°
2026-04-23 16:00 -25.22004 -51.98941 37110 ft 502 kts 74°
2026-04-23 16:00 -25.20403 -51.91450 37117 ft 503 kts 74°
2026-04-23 16:01 -25.18798 -51.83952 37125 ft 502 kts 74°
2026-04-23 16:01 -25.17190 -51.76465 37129 ft 502 kts 74°
2026-04-23 16:02 -25.15580 -51.68986 37121 ft 502 kts 74°
2026-04-23 16:02 -25.13964 -51.61501 37131 ft 502 kts 74°
2026-04-23 16:03 -25.12346 -51.54023 37133 ft 502 kts 74°
2026-04-23 16:03 -25.10724 -51.46544 37134 ft 502 kts 74°
2026-04-23 16:04 -25.09100 -51.39080 37127 ft 502 kts 74°
2026-04-23 16:04 -25.07471 -51.31609 37132 ft 502 kts 74°
2026-04-23 16:05 -25.05838 -51.24141 37125 ft 501 kts 74°
2026-04-23 16:05 -25.04204 -51.16687 37123 ft 502 kts 74°
2026-04-23 16:06 -25.02565 -51.09228 37116 ft 501 kts 74°
2026-04-23 16:06 -25.00923 -51.01773 37124 ft 502 kts 74°
2026-04-23 16:07 -24.99277 -50.94322 37117 ft 501 kts 74°
2026-04-23 16:07 -24.97627 -50.86871 37119 ft 502 kts 74°
2026-04-23 16:08 -24.95973 -50.79423 37121 ft 501 kts 74°
2026-04-23 16:08 -24.94317 -50.71979 37119 ft 502 kts 74°
2026-04-23 16:09 -24.92655 -50.64531 37131 ft 502 kts 74°
2026-04-23 16:09 -24.90991 -50.57086 37122 ft 502 kts 74°
2026-04-23 16:10 -24.89320 -50.49637 37122 ft 502 kts 74°
2026-04-23 16:10 -24.87647 -50.42192 37119 ft 502 kts 74°
2026-04-23 16:11 -24.85970 -50.34752 37125 ft 502 kts 74°
2026-04-23 16:11 -24.84289 -50.27309 37133 ft 502 kts 74°
2026-04-23 16:12 -24.82604 -50.19865 37134 ft 502 kts 74°
2026-04-23 16:12 -24.80914 -50.12423 37127 ft 502 kts 74°
2026-04-23 16:13 -24.79222 -50.04985 37135 ft 502 kts 74°
2026-04-23 16:13 -24.76675 -49.93827 37143 ft 502 kts 74°
2026-04-23 16:14 -24.74973 -49.86393 37144 ft 502 kts 74°
2026-04-23 16:14 -24.73266 -49.78952 37139 ft 502 kts 74°
2026-04-23 16:15 -24.71554 -49.71518 37137 ft 502 kts 74°
2026-04-23 16:15 -24.69842 -49.64087 37139 ft 503 kts 74°
2026-04-23 16:16 -24.68123 -49.56654 37134 ft 502 kts 74°
2026-04-23 16:16 -24.66401 -49.49222 37137 ft 503 kts 74°
2026-04-23 16:17 -24.64676 -49.41794 37139 ft 502 kts 74°
2026-04-23 16:17 -24.62947 -49.34371 37138 ft 503 kts 74°
2026-04-23 16:18 -24.61213 -49.26941 37138 ft 503 kts 74°
2026-04-23 16:18 -24.59476 -49.19517 37135 ft 503 kts 74°
2026-04-23 16:19 -24.57734 -49.12088 37139 ft 503 kts 74°
2026-04-23 16:19 -24.55990 -49.04669 37131 ft 503 kts 74°
2026-04-23 16:20 -24.54239 -48.97236 37142 ft 503 kts 74°
2026-04-23 16:20 -24.52487 -48.89816 37146 ft 503 kts 74°
2026-04-23 16:21 -24.50731 -48.82398 37146 ft 503 kts 74°
2026-04-23 16:21 -24.48970 -48.74981 37140 ft 503 kts 74°
2026-04-23 16:22 -24.47210 -48.67569 37149 ft 503 kts 74°
2026-04-23 16:22 -24.45442 -48.60150 37149 ft 504 kts 74°
2026-04-23 16:23 -24.43672 -48.52736 37146 ft 503 kts 75°
2026-04-23 16:23 -24.41901 -48.45333 37149 ft 503 kts 75°
2026-04-23 16:24 -24.40127 -48.37934 37140 ft 502 kts 75°
2026-04-23 16:24 -24.38350 -48.30542 37149 ft 503 kts 75°
2026-04-23 16:25 -24.36563 -48.23142 37143 ft 502 kts 73°
2026-04-23 16:25 -24.35244 -48.19634 37139 ft 498 kts 57°
2026-04-23 16:25 -24.33194 -48.16612 37142 ft 493 kts 44°
2026-04-23 16:26 -24.30669 -48.14105 37158 ft 490 kts 31°
2026-04-23 16:26 -24.27793 -48.12128 37134 ft 489 kts 27°
2026-04-23 16:26 -24.21910 -48.08386 37141 ft 490 kts 25°
2026-04-23 16:27 -24.15963 -48.04813 36560 ft 487 kts 24°
2026-04-23 16:27 -24.12984 -48.03053 35876 ft 487 kts 24°
2026-04-23 16:27 -24.10015 -48.01306 35318 ft 485 kts 24°
2026-04-23 16:28 -24.07052 -47.99565 34843 ft 482 kts 24°
2026-04-23 16:28 -24.04117 -47.97840 34353 ft 479 kts 24°
2026-04-23 16:28 -24.01198 -47.96127 33801 ft 477 kts 24°
2026-04-23 16:28 -23.98289 -47.94419 33249 ft 474 kts 24°
2026-04-23 16:29 -23.95401 -47.92724 32759 ft 470 kts 24°
2026-04-23 16:29 -23.92534 -47.91043 32275 ft 467 kts 24°
2026-04-23 16:29 -23.89687 -47.89375 31787 ft 464 kts 24°
2026-04-23 16:29 -23.86855 -47.87717 31303 ft 462 kts 23°
2026-04-23 16:30 -23.84034 -47.86066 30821 ft 459 kts 23°
2026-04-23 16:30 -23.81229 -47.84425 30342 ft 457 kts 23°
2026-04-23 16:30 -23.78435 -47.82791 29798 ft 456 kts 23°
2026-04-23 16:30 -23.75729 -47.80992 29191 ft 459 kts 35°
2026-04-23 16:31 -23.73436 -47.78582 28717 ft 457 kts 42°
2026-04-23 16:31 -23.71196 -47.76161 28322 ft 452 kts 41°
2026-04-23 16:31 -23.68960 -47.73779 27861 ft 449 kts 41°
2026-04-23 16:31 -23.66732 -47.71424 27383 ft 446 kts 41°
2026-04-23 16:32 -23.64515 -47.69091 26992 ft 442 kts 41°
2026-04-23 16:32 -23.62316 -47.66779 26633 ft 437 kts 41°
2026-04-23 16:32 -23.60152 -47.64504 26329 ft 431 kts 41°
2026-04-23 16:32 -23.58012 -47.62256 26015 ft 425 kts 41°
2026-04-23 16:33 -23.55902 -47.60040 25697 ft 420 kts 41°
2026-04-23 16:33 -23.53814 -47.57848 25387 ft 415 kts 41°
2026-04-23 16:33 -23.51747 -47.55679 25076 ft 411 kts 41°
2026-04-23 16:33 -23.49704 -47.53536 24768 ft 407 kts 41°
2026-04-23 16:34 -23.47663 -47.51398 24463 ft 408 kts 41°
2026-04-23 16:34 -23.45630 -47.49268 24168 ft 406 kts 41°
2026-04-23 16:34 -23.43602 -47.47144 23866 ft 404 kts 41°
2026-04-23 16:34 -23.41587 -47.45033 23532 ft 402 kts 41°
2026-04-23 16:35 -23.39584 -47.42938 23200 ft 399 kts 41°
2026-04-23 16:35 -23.37596 -47.40858 22934 ft 397 kts 41°
2026-04-23 16:35 -23.35617 -47.38788 22668 ft 394 kts 42°
2026-04-23 16:35 -23.33653 -47.36735 22439 ft 392 kts 42°
2026-04-23 16:36 -23.31689 -47.34681 22196 ft 390 kts 42°
2026-04-23 16:36 -23.29740 -47.32646 21955 ft 388 kts 42°
2026-04-23 16:36 -23.27801 -47.30621 21722 ft 386 kts 42°
2026-04-23 16:36 -23.25869 -47.28605 21487 ft 384 kts 42°
2026-04-23 16:37 -23.23950 -47.26602 21252 ft 382 kts 42°
2026-04-23 16:37 -23.22038 -47.24610 21019 ft 380 kts 42°
2026-04-23 16:37 -23.20140 -47.22632 20790 ft 378 kts 42°
2026-04-23 16:37 -23.18249 -47.20661 20560 ft 377 kts 42°
2026-04-23 16:38 -23.16364 -47.18697 20335 ft 375 kts 42°
2026-04-23 16:38 -23.14505 -47.16737 20096 ft 373 kts 45°
2026-04-23 16:38 -23.12756 -47.14671 19857 ft 371 kts 46°
2026-04-23 16:38 -23.11020 -47.12625 19644 ft 369 kts 46°
2026-04-23 16:39 -23.09283 -47.10595 19419 ft 367 kts 46°
2026-04-23 16:39 -23.07550 -47.08575 19191 ft 365 kts 46°
2026-04-23 16:39 -23.05812 -47.06530 18621 ft 372 kts 46°
2026-04-23 16:39 -23.04060 -47.04463 18100 ft 374 kts 46°
2026-04-23 16:40 -23.02296 -47.02386 17546 ft 376 kts 46°
2026-04-23 16:40 -23.00522 -47.00298 17010 ft 378 kts 47°
2026-04-23 16:40 -22.98738 -46.98202 16466 ft 379 kts 47°
2026-04-23 16:40 -22.96956 -46.96107 16017 ft 378 kts 47°
2026-04-23 16:41 -22.95182 -46.94023 15618 ft 375 kts 47°
2026-04-23 16:41 -22.93424 -46.91958 15258 ft 372 kts 47°
2026-04-23 16:41 -22.91680 -46.89911 14901 ft 368 kts 47°
2026-04-23 16:41 -22.90010 -46.87879 14536 ft 355 kts 53°
2026-04-23 16:42 -22.89015 -46.85519 14148 ft 340 kts 81°
2026-04-23 16:42 -22.89106 -46.83055 13887 ft 322 kts 107°
2026-04-23 16:42 -22.90087 -46.80962 13608 ft 309 kts 130°
2026-04-23 16:42 -22.91661 -46.79415 13327 ft 307 kts 147°
2026-04-23 16:43 -22.93541 -46.78345 13061 ft 305 kts 153°
2026-04-23 16:43 -22.95260 -46.77029 12773 ft 303 kts 139°
2026-04-23 16:43 -22.96879 -46.75574 12478 ft 303 kts 141°
2026-04-23 16:43 -22.98516 -46.74154 12191 ft 301 kts 141°
2026-04-23 16:44 -23.00150 -46.72746 11913 ft 300 kts 141°
2026-04-23 16:44 -23.01775 -46.71350 11631 ft 298 kts 141°
2026-04-23 16:44 -23.03383 -46.69969 11224 ft 293 kts 141°
2026-04-23 16:44 -23.04969 -46.68607 10796 ft 288 kts 141°
2026-04-23 16:45 -23.06511 -46.67284 10538 ft 276 kts 141°
2026-04-23 16:45 -23.07978 -46.66024 10435 ft 267 kts 141°
2026-04-23 16:45 -23.09436 -46.64771 10320 ft 268 kts 141°
2026-04-23 16:45 -23.10895 -46.63516 10188 ft 269 kts 141°
2026-04-23 16:46 -23.12357 -46.62259 9920 ft 267 kts 141°
2026-04-23 16:46 -23.13806 -46.61013 9614 ft 265 kts 141°
2026-04-23 16:46 -23.15251 -46.59771 9342 ft 266 kts 141°
2026-04-23 16:46 -23.16700 -46.58525 9048 ft 266 kts 141°
2026-04-23 16:47 -23.18149 -46.57278 8777 ft 266 kts 141°
2026-04-23 16:47 -23.19682 -46.56203 8521 ft 260 kts 160°
2026-04-23 16:47 -23.21445 -46.56005 8319 ft 258 kts 189°
2026-04-23 16:47 -23.23116 -46.56702 8196 ft 260 kts 210°
2026-04-23 16:48 -23.24660 -46.57739 8091 ft 262 kts 211°
2026-04-23 16:48 -23.26192 -46.58792 7966 ft 261 kts 211°
2026-04-23 16:48 -23.27722 -46.59858 7742 ft 262 kts 212°
2026-04-23 16:48 -23.29244 -46.60927 7519 ft 261 kts 212°
2026-04-23 16:49 -23.30763 -46.62001 7308 ft 260 kts 212°
2026-04-23 16:49 -23.32272 -46.63070 7122 ft 258 kts 212°
2026-04-23 16:49 -23.33752 -46.64122 6935 ft 252 kts 212°
2026-04-23 16:49 -23.35204 -46.65155 6730 ft 248 kts 213°
2026-04-23 16:50 -23.36628 -46.66167 6550 ft 242 kts 213°
2026-04-23 16:50 -23.38019 -46.67155 6352 ft 237 kts 213°
2026-04-23 16:50 -23.39365 -46.68112 6189 ft 226 kts 213°
2026-04-23 16:50 -23.40685 -46.69004 5886 ft 222 kts 203°
2026-04-23 16:51 -23.42160 -46.69219 5667 ft 212 kts 169°
2026-04-23 16:51 -23.43452 -46.68597 5549 ft 199 kts 140°
2026-04-23 16:51 -23.44331 -46.67507 5396 ft 186 kts 126°
2026-04-23 16:51 -23.45088 -46.66402 5213 ft 180 kts 126°
2026-04-23 16:52 -23.45839 -46.65361 5103 ft 171 kts 127°
2026-04-23 16:52 -23.46545 -46.64329 5061 ft 169 kts 124°
2026-04-23 16:52 -23.47152 -46.63243 5029 ft 168 kts 107°
2026-04-23 16:52 -23.47264 -46.61989 4903 ft 167 kts 86°
2026-04-23 16:53 -23.47107 -46.60738 4717 ft 167 kts 77°
2026-04-23 16:53 -23.46805 -46.59518 4505 ft 167 kts 73°
2026-04-23 16:53 -23.46476 -46.58305 4281 ft 167 kts 72°
2026-04-23 16:53 -23.46148 -46.57097 4074 ft 165 kts 72°
2026-04-23 16:54 -23.45830 -46.55919 3864 ft 161 kts 72°
2026-04-23 16:54 -23.45516 -46.54751 3663 ft 160 kts 72°
2026-04-23 16:54 -23.45204 -46.53596 3464 ft 160 kts 72°
2026-04-23 16:54 -23.44893 -46.52443 3237 ft 156 kts 72°
2026-04-23 16:55 -23.44591 -46.51326 3011 ft 153 kts 73°
2026-04-23 16:55 -23.44277 -46.50224 2724 ft 151 kts 72°
2026-04-23 16:55 -23.43992 -46.49150 2510 ft 146 kts 74°
2026-04-23 16:55 -23.43715 -46.48127 2475 ft 130 kts 75°
2026-04-23 16:56 -23.43531 -46.47406 2472 ft 63 kts 75°
2026-04-23 16:56 -23.43467 -46.47179 2473 ft 4 kts 75°
2026-04-23 16:56 -23.43444 -46.47101 2471 ft 16 kts 76°
2026-04-23 16:56 -23.43396 -46.46981 2471 ft 19 kts 50°
2026-04-23 16:57 -23.43300 -46.46862 2471 ft 17 kts 43°
2026-04-23 16:57 -23.43204 -46.46761 2472 ft 21 kts 43°
2026-04-23 16:57 -23.43125 -46.46711 2473 ft 13 kts
2026-04-23 16:57 -23.43020 -46.46739 2474 ft 18 kts 344°
2026-04-23 16:58 -23.42923 -46.46770 2473 ft 13 kts 344°
2026-04-23 16:58 -23.42853 -46.46792 2472 ft 11 kts 343°
2026-04-23 16:58 -23.42782 -46.46825 2471 ft 13 kts 308°
2026-04-23 16:58 -23.42790 -46.46934 2471 ft 17 kts 252°
2026-04-23 16:59 -23.42825 -46.47064 2473 ft 14 kts 253°
2026-04-23 16:59 -23.42849 -46.47151 2473 ft 14 kts 253°
2026-04-23 16:59 -23.42882 -46.47268 2474 ft 18 kts 252°
2026-04-23 16:59 -23.42922 -46.47417 2488 ft 23 kts 253°
2026-04-23 17:00 -23.42967 -46.47583 2484 ft 20 kts 254°
2026-04-23 17:00 -23.43003 -46.47717 2485 ft 16 kts 253°
2026-04-23 17:00 -23.43011 -46.47794 2483 ft 10 kts 301°
2026-04-23 17:00 -23.42945 -46.47827 2484 ft 12 kts 352°
2026-04-23 17:01 -23.42857 -46.47843 2484 ft 14 kts 350°
2026-04-23 17:01 -23.42755 -46.47862 2488 ft 15 kts 350°
2026-04-23 17:01 -23.42733 -46.47875 2483 ft 0 kts 304°
2026-04-23 17:02 -23.42733 -46.47876 2483 ft 0 kts 294°
2026-04-23 17:02 -23.42733 -46.47882 2483 ft 1 kts 273°
2026-04-23 17:02 -23.42733 -46.47897 2486 ft 3 kts 270°
2026-04-23 17:02 -23.42734 -46.47927 2485 ft 5 kts 264°
2026-04-23 17:03 -23.42736 -46.47953 2483 ft 2 kts 265°
2026-04-23 17:03 -23.42736 -46.47960 2489 ft 1 kts 265°
2026-04-23 17:03 -23.42737 -46.47961 2489 ft 0 kts 265°